TimeCST,TemperatureF,Dew PointF,Humidity,Sea Level PressureIn,VisibilityMPH,Wind Direction,Wind SpeedMPH,Gust SpeedMPH,PrecipitationIn,Events,Conditions,WindDirDegrees,DateUTC
12:53 AM,28.0,15.1,58,29.60,10.0,South,18.4,-,N/A,,Clear,190,2014-01-30 06:53:00
1:53 AM,28.9,15.1,56,29.57,10.0,SSW,18.4,-,N/A,,Overcast,200,2014-01-30 07:53:00
2:53 AM,30.0,16.0,56,29.54,10.0,South,16.1,-,N/A,,Overcast,190,2014-01-30 08:53:00
3:53 AM,30.9,16.0,54,29.50,10.0,SSW,18.4,28.8,N/A,,Overcast,200,2014-01-30 09:53:00
4:53 AM,30.9,16.0,54,29.47,10.0,South,19.6,27.6,N/A,,Overcast,190,2014-01-30 10:53:00
5:32 AM,30.0,21.0,69,29.36,6.0,SSE,23.0,31.1,0.01,Rain,Light Freezing Rain,150,2014-01-30 11:32:00
5:45 AM,30.0,19.0,64,29.39,10.0,South,23.0,31.1,0.01,,Overcast,170,2014-01-30 11:45:00
5:53 AM,28.9,19.0,67,29.43,10.0,South,19.6,27.6,0.01,,Overcast,180,2014-01-30 11:53:00
6:53 AM,28.9,19.0,67,29.45,10.0,South,15.0,-,N/A,,Overcast,180,2014-01-30 12:53:00
7:53 AM,30.0,21.0,69,29.50,3.0,WSW,29.9,38.0,0.00,Snow,Light Snow,240,2014-01-30 13:53:00
7:56 AM,28.9,21.9,75,29.47,1.8,SW,24.2,38.0,0.00,Snow,Light Snow,230,2014-01-30 13:56:00
8:01 AM,28.0,24.1,85,29.48,0.8,SW,24.2,36.8,0.00,Snow,Light Snow,230,2014-01-30 14:01:00
8:08 AM,28.0,26.1,92,29.47,0.2,SW,23.0,31.1,0.01,Fog-Snow,Heavy Snow,230,2014-01-30 14:08:00
8:20 AM,28.0,27.0,96,29.47,0.2,SW,16.1,27.6,0.01,Fog-Snow,Snow,230,2014-01-30 14:20:00
8:39 AM,28.0,27.0,96,29.47,0.5,SW,13.8,-,0.02,Fog-Snow,Light Snow,220,2014-01-30 14:39:00
8:51 AM,28.4,26.6,93,29.48,0.5,SW,15.0,-,0.02,Fog-Snow,Snow,220,2014-01-30 14:51:00
8:53 AM,28.0,27.0,96,29.50,0.5,SW,13.8,-,0.02,Fog-Snow,Snow,220,2014-01-30 14:53:00
9:12 AM,28.0,27.0,96,29.47,0.8,SW,12.7,-,0.01,Snow,Light Snow,220,2014-01-30 15:12:00
9:15 AM,28.0,27.0,96,29.47,1.0,SW,12.7,-,0.01,Snow,Light Snow,220,2014-01-30 15:15:00
9:44 AM,28.9,27.0,92,29.47,0.8,SW,13.8,-,0.01,Snow,Light Snow,220,2014-01-30 15:44:00
9:53 AM,28.9,27.0,92,29.49,0.8,SW,16.1,-,0.01,Snow,Light Snow,220,2014-01-30 15:53:00
10:15 AM,28.9,28.0,96,29.47,1.0,SW,15.0,-,0.00,Snow,Light Snow,220,2014-01-30 16:15:00
10:33 AM,30.0,28.0,92,29.48,2.0,SW,15.0,-,0.00,Snow,Light Snow,230,2014-01-30 16:33:00
10:43 AM,30.0,28.0,92,29.48,3.0,WSW,17.3,-,0.00,Snow,Light Snow,240,2014-01-30 16:43:00
10:53 AM,30.0,28.0,92,29.52,2.5,WSW,19.6,-,0.00,Snow,Light Snow,250,2014-01-30 16:53:00
11:02 AM,30.0,28.0,92,29.50,1.8,West,17.3,-,0.00,Snow,Light Snow,270,2014-01-30 17:02:00
11:08 AM,30.0,28.0,92,29.50,2.0,West,25.3,29.9,0.00,Snow,Light Snow,270,2014-01-30 17:08:00
11:16 AM,28.9,26.1,89,29.51,1.8,NW,26.5,-,0.00,Snow,Light Snow,310,2014-01-30 17:16:00
11:22 AM,28.0,25.0,88,29.52,2.0,NW,27.6,-,0.00,,Mostly Cloudy,310,2014-01-30 17:22:00
11:30 AM,27.0,24.1,89,29.52,2.5,NW,24.2,31.1,0.00,,Mostly Cloudy,310,2014-01-30 17:30:00
11:34 AM,26.1,23.0,88,29.53,1.8,NW,29.9,-,0.00,,Mostly Cloudy,310,2014-01-30 17:34:00
11:53 AM,23.0,19.9,88,29.58,1.0,NW,29.9,36.8,0.00,,Overcast,320,2014-01-30 17:53:00
12:04 PM,21.9,19.0,89,29.56,0.8,NNW,32.2,40.3,0.00,Snow,Blowing Snow,330,2014-01-30 18:04:00
12:33 PM,19.9,16.0,85,29.58,1.0,NNW,27.6,35.7,0.00,Snow,Blowing Snow,330,2014-01-30 18:33:00
12:53 PM,19.0,15.1,85,29.64,1.0,NNW,28.8,38.0,0.01,Snow,Blowing Snow,330,2014-01-30 18:53:00
1:01 PM,19.0,15.1,85,29.61,0.8,NNW,33.4,40.3,N/A,Snow,Blowing Snow,330,2014-01-30 19:01:00
1:13 PM,19.0,15.1,85,29.62,1.0,NNW,26.5,39.1,0.00,Snow,Light Snow,330,2014-01-30 19:13:00
1:23 PM,19.0,14.0,81,29.63,0.8,NNW,31.1,39.1,0.00,Snow,Light Snow,330,2014-01-30 19:23:00
1:36 PM,18.0,14.0,84,29.64,1.0,NNW,29.9,36.8,0.00,Snow,Light Snow,340,2014-01-30 19:36:00
1:53 PM,18.0,14.0,84,29.69,1.5,NNW,27.6,38.0,0.00,Snow,Blowing Snow,330,2014-01-30 19:53:00
2:03 PM,18.0,14.0,84,29.68,3.0,NNW,25.3,33.4,N/A,Snow,Blowing Snow,330,2014-01-30 20:03:00
2:22 PM,18.0,12.9,81,29.70,1.8,NNW,27.6,38.0,0.00,Snow,Light Snow,330,2014-01-30 20:22:00
2:53 PM,18.0,12.9,81,29.76,2.5,NW,25.3,34.5,0.00,Snow,Light Snow,320,2014-01-30 20:53:00
3:04 PM,18.0,12.9,81,29.73,1.0,NW,26.5,33.4,0.00,Snow,Light Snow,320,2014-01-30 21:04:00
3:22 PM,17.1,12.0,81,29.75,2.5,NW,25.3,-,0.00,Snow,Blowing Snow,320,2014-01-30 21:22:00
3:30 PM,17.1,12.0,81,29.75,3.0,NW,26.5,35.7,0.00,Snow,Blowing Snow,320,2014-01-30 21:30:00
3:39 PM,17.1,10.9,77,29.76,2.5,NW,25.3,34.5,0.00,Snow,Blowing Snow,320,2014-01-30 21:39:00
3:46 PM,17.1,12.0,81,29.76,3.0,NW,24.2,32.2,0.00,Snow,Light Snow,320,2014-01-30 21:46:00
3:53 PM,16.0,10.9,81,29.81,2.5,NW,26.5,32.2,0.00,Snow,Light Snow,310,2014-01-30 21:53:00
4:06 PM,15.1,10.9,84,29.79,4.0,NW,23.0,32.2,0.00,,Overcast,310,2014-01-30 22:06:00
4:53 PM,12.0,8.1,84,29.86,4.0,NW,24.2,29.9,0.00,,Mist,320,2014-01-30 22:53:00
7:26 PM,1.9,-2.0,83,29.92,10.0,NW,19.6,23.0,N/A,,Scattered Clouds,320,2014-01-31 01:26:00
7:53 PM,1.9,-2.0,83,30.01,9.0,NW,16.1,-,N/A,,Mostly Cloudy,310,2014-01-31 01:53:00
8:18 PM,1.9,-2.9,80,29.97,10.0,NW,17.3,-,N/A,,Scattered Clouds,310,2014-01-31 02:18:00
8:53 PM,1.0,-4.0,79,30.05,10.0,NW,19.6,-,N/A,,Clear,310,2014-01-31 02:53:00
9:53 PM,1.9,-4.0,76,30.07,10.0,NW,17.3,-,N/A,,Clear,310,2014-01-31 03:53:00
10:53 PM,1.0,-5.1,75,30.09,10.0,NW,21.9,28.8,N/A,,Clear,320,2014-01-31 04:53:00
11:53 PM,-0.0,-5.1,79,30.11,10.0,NW,19.6,-,N/A,,Clear,320,2014-01-31 05:53:00